Columbia, MO

11:41 AM CDT on August 20, 2017 (GMT -0500)
Columbia Regional

Weather History for KCOU - March, 2013

Change the Weather History Date:

Thursday, March 28, 2013

  Actual Average Record
Temperature  
Mean Temperature 49 °F 49 °F  
Max Temperature 60 °F 60 °F 86 °F (1910)
Min Temperature 37 °F 38 °F 19 °F (1921)
Degree Days  
Heating Degree Days 16 16  
Month to date heating degree days 774 588  
Since 1 July heating degree days 4357 4534  
Cooling Degree Days 0 0  
Month to date cooling degree days 0 0  
Year to date cooling degree days 1 0  
Moisture  
Dew Point 34 °F    
Average Humidity 59    
Maximum Humidity 76    
Minimum Humidity 42    
Precipitation  
Precipitation 0.00 in 0.11 in 1.69 in (1977)
Month to date precipitation 2.84 2.57  
Year to date precipitation 9.08 6.74  
Snow  
Snow 0.00 in 0.00 in 1.40 in (1899)
Month to date snowfall 10.3 1.6  
Since 1 July snowfall 35.0 17.7  
Snow Depth 2.00 in    
Sea Level Pressure  
Sea Level Pressure 30.25 in    
Wind  
Wind Speed 9 mph (ESE)    
Max Wind Speed 16 mph    
Max Gust Speed 19 mph    
Visibility 10 miles    
Events      
T = Trace of Precipitation, MM = Missing Value Source: NWS Daily Summary

Daily Weather History Graph

Daily Weather History Graph

Search for Another Location

Airport or City:

Trip Planner

Search our weather history database for the weather conditions in past years. The results will help you decide how hot, cold, wet, or windy it might be!

Date:

Astronomy

Mar. 28, 2013 Rise Set
Actual Time 6:59 AM CDT 7:28 PM CDT
Civil Twilight 6:32 AM CDT 7:55 PM CDT
Nautical Twilight 6:01 AM CDT 8:27 PM CDT
Astronomical Twilight 5:29 AM CDT 8:59 PM CDT
Moon 9:19 PM CDT (3/28) 7:28 AM CDT (3/28)
Length of Visible Light 13h 22m
Length of Day
12h 29m
Full, 98% of the Moon is Illuminated
Mar 28
Full
Apr 2
Last Quarter
Apr 10
New
Apr 18
First Quarter
Apr 25
Full

Hourly Weather History & Observations

Time (CDT) Temp. Windchill Dew Point Humidity Pressure Visibility Wind Dir Wind Speed Gust Speed Precip Events Conditions
12:54 AM 39.0 °F 33.4 °F 27.0 °F 62% 30.30 in 10.0 mi East 8.1 mph - N/A   Overcast
1:54 AM 39.0 °F 33.4 °F 28.0 °F 65% 30.29 in 10.0 mi East 8.1 mph - N/A   Overcast
2:54 AM 37.9 °F 31.5 °F 28.9 °F 70% 30.29 in 10.0 mi East 9.2 mph - N/A   Overcast
3:54 AM 37.9 °F 30.9 °F 28.9 °F 70% 30.28 in 10.0 mi East 10.4 mph - N/A   Overcast
4:54 AM 37.9 °F 32.1 °F 28.0 °F 68% 30.27 in 10.0 mi ESE 8.1 mph - N/A   Overcast
5:54 AM 37.0 °F 30.4 °F 30.0 °F 76% 30.28 in 10.0 mi East 9.2 mph - N/A   Overcast
6:54 AM 37.0 °F 29.8 °F 30.0 °F 76% 30.28 in 10.0 mi ESE 10.4 mph - N/A   Overcast
7:54 AM 37.9 °F 30.9 °F 30.0 °F 73% 30.29 in 10.0 mi ESE 10.4 mph - N/A   Overcast
8:54 AM 39.0 °F 32.8 °F 30.9 °F 73% 30.30 in 10.0 mi ESE 9.2 mph - N/A   Scattered Clouds
9:54 AM 42.1 °F 36.1 °F 30.9 °F 65% 30.30 in 10.0 mi ESE 10.4 mph - N/A   Overcast
10:54 AM 46.9 °F - 33.1 °F 59% 30.29 in 10.0 mi ESE 10.4 mph - N/A   Mostly Cloudy
11:54 AM 48.9 °F - 34.0 °F 56% 30.27 in 10.0 mi ESE 12.7 mph - N/A   Scattered Clouds
12:54 PM 53.1 °F - 36.0 °F 52% 30.26 in 10.0 mi East 10.4 mph - N/A   Clear
1:54 PM 57.0 °F - 37.0 °F 47% 30.23 in 10.0 mi ESE 9.2 mph 17.3 mph N/A   Partly Cloudy
2:54 PM 59.0 °F - 37.9 °F 46% 30.20 in 10.0 mi SE 10.4 mph - N/A   Overcast
3:54 PM 60.1 °F - 37.0 °F 42% 30.19 in 10.0 mi SE 8.1 mph - N/A   Partly Cloudy
4:54 PM 59.0 °F - 37.0 °F 44% 30.18 in 10.0 mi SE 9.2 mph - N/A   Mostly Cloudy
5:54 PM 57.9 °F - 39.9 °F 51% 30.18 in 10.0 mi East 6.9 mph - N/A   Overcast
6:54 PM 55.9 °F - 39.0 °F 53% 30.19 in 10.0 mi East 8.1 mph - N/A   Overcast
7:54 PM 52.0 °F - 37.0 °F 57% 30.20 in 10.0 mi East 8.1 mph - N/A   Mostly Cloudy
8:54 PM 50.0 °F - 39.0 °F 66% 30.20 in 10.0 mi East 9.2 mph - N/A   Mostly Cloudy
9:54 PM 48.0 °F - 39.0 °F 71% 30.22 in 10.0 mi ENE 10.4 mph - N/A   Overcast
10:54 PM 48.0 °F - 37.9 °F 68% 30.22 in 10.0 mi East 4.6 mph - N/A   Overcast
11:54 PM 46.9 °F - 37.9 °F 71% 30.20 in 10.0 mi East 6.9 mph - N/A   Mostly Cloudy